(63) Ausonia
ephemeris date magn radius delta ra dec elong phase
Today19 Apr 202511.42.088 AU1.906 AU20h27m-24°58'85.8°28.7°
Opposition2 Aug 20259.32.136 AU1.124 AU20h57m-22°28'174.9°2.4°
(63) Ausonia - 2025-04-19
astro.vanbuitenen.nl


 
-1 year
-1 month
-1 day
Now
+1 day
+1 month
+1 year

The interactive orbit chart above shows the body's path through the solar system and its position at the given date. Green and blue lines are shown perpendicular to the ecliptic plane: Green if the path is above the ecliptic plane, blue if it is below. (Left-click and drag to rotate the view; Right-click and drag to move the view; Use scroll wheel to zoom in our out.)

The orbital elements of Ausonia are:

            e (Eccentricity)                : 0.1282281
            a (Semimajor axis)              : 2.3949157
            i (Inclination)                 : 5.77292
            Ω (Longitude of ascending node) : 337.68535
            ω (Argument of perihelion)      : 295.67008
            M (Mean anomaly)                : 4.87062
            Epoch                           : 2025 May 05

            L (Longitude of perihelion)     : 273.46935
            B (Latitude of perihelion)      : -5.20149
            P (Orbital period in years)     : 3.71            
        

The light curve chart below shows the estimated development of the minor planet's magnitude.


The all-sky chart below shows the path of the minor planet over the same period as the light curve. The current position is marked yellow.





The following chart shows the path of the minor planet in the next few days. The field of view is optimized for (~10x50) binoculars and finderscopes. A more printer-friendly version of the same chart can be found below.




Ephemerides:
Date       Time       RA (2000)    DEC (2000)    delta   radius  elong  phase   PA    magn
2025-04-19 00:00 UT   20 27 10.8   -24 58 38     1.906    2.088   85.8   28.7   256   11.4 
2025-04-19 21:09 UT   20 28 37.0   -24 54 39     1.896    2.088   86.3   28.7   256   11.4 
2025-04-20 00:00 UT   20 28 48.5   -24 54 06     1.895    2.088   86.4   28.7   256   11.4 
2025-04-21 00:00 UT   20 30 25.2   -24 49 34     1.884    2.088   87.0   28.7   256   11.4 
2025-04-22 00:00 UT   20 32 00.9   -24 45 02     1.873    2.088   87.6   28.7   256   11.4 
2025-04-23 00:00 UT   20 33 35.5   -24 40 31     1.862    2.088   88.2   28.8   255   11.3 
2025-04-24 00:00 UT   20 35 09.1   -24 35 59     1.851    2.088   88.8   28.8   255   11.3 
2025-04-25 00:00 UT   20 36 41.6   -24 31 29     1.840    2.088   89.4   28.8   255   11.3 
2025-04-26 00:00 UT   20 38 13.0   -24 26 59     1.829    2.088   90.0   28.8   255   11.3 
2025-04-27 00:00 UT   20 39 43.2   -24 22 30     1.818    2.088   90.6   28.8   255   11.3 
2025-04-28 00:00 UT   20 41 12.4   -24 18 02     1.808    2.088   91.3   28.8   255   11.3 
2025-04-29 00:00 UT   20 42 40.4   -24 13 35     1.797    2.088   91.9   28.8   255   11.3 
2025-04-30 00:00 UT   20 44 07.2   -24 09 10     1.786    2.089   92.5   28.8   255   11.3 
2025-05-01 00:00 UT   20 45 32.9   -24 04 46     1.775    2.089   93.2   28.8   255   11.2 
2025-05-02 00:00 UT   20 46 57.4   -24 00 24     1.764    2.089   93.8   28.8   255   11.2 
2025-05-03 00:00 UT   20 48 20.6   -23 56 03     1.753    2.089   94.4   28.8   255   11.2 
2025-05-04 00:00 UT   20 49 42.7   -23 51 45     1.743    2.089   95.1   28.7   255   11.2 
2025-05-05 00:00 UT   20 51 03.5   -23 47 29     1.732    2.089   95.7   28.7   255   11.2 
2025-05-06 00:00 UT   20 52 23.1   -23 43 15     1.721    2.089   96.4   28.7   255   11.2 
2025-05-07 00:00 UT   20 53 41.4   -23 39 03     1.710    2.090   97.0   28.6   255   11.2 
2025-05-08 00:00 UT   20 54 58.5   -23 34 54     1.700    2.090   97.7   28.6   255   11.1 
2025-05-09 00:00 UT   20 56 14.2   -23 30 47     1.689    2.090   98.4   28.5   255   11.1 
2025-05-10 00:00 UT   20 57 28.7   -23 26 43     1.679    2.090   99.0   28.5   255   11.1 
2025-05-11 00:00 UT   20 58 41.8   -23 22 43     1.668    2.090   99.7   28.4   255   11.1 
2025-05-12 00:00 UT   20 59 53.6   -23 18 45     1.657    2.091  100.4   28.4   255   11.1 
2025-05-13 00:00 UT   21 01 04.1   -23 14 51     1.647    2.091  101.1   28.3   255   11.1 
2025-05-14 00:00 UT   21 02 13.1   -23 10 60     1.636    2.091  101.7   28.2   255   11.1 
2025-05-15 00:00 UT   21 03 20.8   -23 07 12     1.626    2.091  102.4   28.2   255   11.0 


    Terminology:
            
    delta:  distance between minor planet and earth in AU
    radius: distance between minor planet and sun in AU
    magn:   magnitude (brightness) estimate    
    ra:     right ascension in hours (24h = 360deg)
    dec:    declination in degrees
    elong:  elongation in degrees (angle sun-earth-minor planet)    
    phase:  phase angle in degrees (angle sun-minor planet-earth)        
    AU:     Astronomical Unit (mean distance between earth and sun: 149597870.7 km
    

Orbital elements provided by the MPC (Minor Planet Center).
Calculations by a modified version of AAPlus, a C# implementation of the AA+ project by PJ Naughter from the algorithms presented in the book "Astronomical Algorithms" by Jean Meeus.
NGC2000 dso catalog and star labels from VizieR as provided by the Strasbourg astronomical Data Center.
Tycho2 catalog from the ESO archive.